CAPE
95 41 22 9 0 0 0 4 35 35 0 0 0 1 24 3 0 0 0 0 0 0 0 0 0 0 0 0 0 0 0 0 0 0 0 0 0 0 0 0 0 0 0
188 93 71 90 23 2 1 1 19 18 1 0 0 0 0 1 0 0 0 0 0 0 0 0 0 0 0 0 0 0 0 0 0 0 0 0 0 0 0 0 0 0 0
142 185 130 147 119 120 68 74 83 61 42 0 0 0 0 0 0 0 0 0 0 0 0 0 0 0 0 0 0 0 0 0 0 0 0 0 0 0 0 0 0 0 0
262 181 113 146 174 106 54 110 47 19 7 0 0 0 0 0 0 0 0 0 0 0 0 0 0 0 0 0 0 0 0 0 0 0 0 0 0 0 0 0 0 0 0
356 198 71 44 115 66 29 26 33 16 0 0 0 0 0 0 0 0 0 0 0 0 0 0 0 0 0 0 0 0 0 0 0 0 0 0 0 0 0 0 0 1 4
356 361 137 21 17 2 26 13 16 16 0 0 0 0 0 0 0 0 0 0 0 0 0 0 0 0 0 0 0 0 0 0 0 0 0 0 0 0 0 0 0 0 0
224 308 209 93 11 0 8 28 24 15 0 0 0 1 0 0 0 0 0 0 0 0 0 0 0 0 0 0 0 0 0 0 0 0 0 0 0 0 0 0 0 0 0
48 129 185 159 57 0 0 14 29 51 17 0 1 2 0 0 0 0 0 0 0 0 0 0 0 0 0 0 0 0 0 0 0 0 0 0 0 0 0 0 0 0 0
0 1 12 92 84 13 0 2 41 50 12 13 12 2 0 0 0 0 0 0 0 0 0 0 0 0 0 0 0 0 0 0 0 0 0 0 0 0 0 0 0 4 0
0 0 1 81 107 65 46 57 72 74 4 3 2 0 0 0 0 0 0 0 0 0 0 0 0 0 0 0 0 0 0 0 0 0 0 0 0 0 0 0 0 1 3
0 0 36 71 139 177 145 113 81 37 0 0 1 0 0 0 0 0 0 0 0 0 0 0 0 0 0 0 0 0 0 0 0 0 0 0 0 0 0 0 0 1 8
5 59 154 230 241 224 176 90 38 0 0 0 0 0 0 0 0 0 0 0 0 0 0 0 0 0 0 0 0 0 0 0 0 0 0 0 0 0 0 0 2 8 14
0 143 229 282 277 253 143 54 10 0 0 0 0 0 0 0 0 0 0 0 0 0 0 0 0 0 0 0 0 0 0 0 0 0 0 0 0 0 0 1 4 8 4
0 75 269 351 262 172 124 25 0 0 0 0 0 0 0 0 0 0 0 0 0 0 0 0 0 0 0 0 0 0 0 0 0 0 0 0 0 0 0 4 10 2 0
0 3 144 236 83 40 2 0 0 0 0 0 0 0 0 0 0 0 0 0 0 0 0 0 0 0 0 0 0 0 0 0 0 0 0 0 0 0 0 1 2 3 1
0 0 0 22 7 0 0 2 1 0 0 0 0 0 0 0 0 0 0 0 0 0 0 0 0 0 0 0 0 0 0 0 0 0 0 0 0 0 0 0 0 0 3
0 0 0 0 0 0 0 0 0 0 0 0 0 0 0 0 0 0 0 0 0 0 0 0 0 0 0 0 0 0 0 0 0 0 0 0 0 0 0 0 0 0 0
0 0 0 0 0 0 0 0 0 0 0 0 0 0 0 0 0 0 0 0 0 0 0 0 0 0 0 0 0 0 0 0 0 0 0 0 0 0 0 0 0 0 0
0 0 0 0 0 0 0 0 0 0 0 0 0 0 0 0 0 0 0 0 0 0 0 0 0 0 0 0 0 0 0 0 0 0 0 0 0 0 0 0 0 0 0
0 0 0 0 0 0 0 0 0 0 0 0 0 0 0 0 0 0 0 0 0 0 0 0 0 0 0 0 0 0 0 0 0 0 0 0 0 0 0 0 0 2 0
0 0 0 0 0 0 0 0 0 0 0 0 0 0 0 0 0 0 0 0 0 0 0 0 0 0 0 0 0 0 0 0 0 0 0 0 0 0 0 0 1 1 0
0 0 0 0 0 0 0 0 0 0 0 0 0 0 0 0 0 0 0 0 0 0 0 0 0 0 0 0 0 0 0 0 0 1 0 0 0 0 0 0 0 0 0
0 0 0 0 0 0 0 0 0 0 0 0 0 0 0 0 0 0 0 0 0 0 0 0 0 0 1 2 5 2 0 0 0 2 1 0 1 1 1 1 0 0 1
0 0 0 0 0 0 0 0 0 0 0 0 0 0 0 0 0 0 0 0 0 0 0 0 0 0 0 0 1 4 5 9 4 1 1 1 0 0 0 1 0 3 3
0 0 0 0 0 0 0 0 0 0 0 0 0 0 0 0 0 0 0 0 0 0 0 0 1 2 1 2 4 2 1 5 4 10 1 1 1 0 0 0 1 2 2
0 0 0 0 0 0 0 0 0 0 0 0 0 0 0 0 0 0 0 0 0 0 0 0 1 0 0 1 2 1 2 2 2 0 0 1 1 1 0 0 2 1 1
CIN
-139 -186 -176 -171 -0 -1 -1 -136 -104 -122 -0 -0 -0 -0 -83 -0 -0 -0 -0 -0 -0 -0 -0 -0 -0 -0 -0 -0 -0 -0 -0 -0 -0 -0 -0 -0 -0 -0 -0 -0 -0 -0 -0
-161 -212 -212 -183 -177 -58 -48 -61 -179 -190 -55 -0 -0 -0 -0 -0 -0 -0 -0 -0 -0 -0 -0 -0 -0 -0 -0 -0 -0 -0 -0 -0 -0 -0 -0 -0 -0 -0 -0 -0 -0 -0 -0
-172 -197 -237 -227 -220 -201 -237 -220 -186 -201 -208 -0 -0 -0 -0 -0 -0 -0 -0 -0 -0 -0 -0 -0 -0 -0 -0 -0 -0 -0 -0 -0 -0 -0 -0 -0 -0 -0 -0 -0 -0 -0 -0
-163 -166 -220 -232 -226 -250 -259 -209 -236 -271 -303 -0 -0 -0 -0 -0 -0 -0 -0 -0 -0 -0 -0 -0 -0 -0 -0 -0 -0 -0 -0 -0 -0 -0 -0 -0 -0 -0 -0 -0 -0 -0 -0
-162 -187 -232 -251 -249 -274 -294 -264 -251 -270 -0 -0 -0 -0 -0 -0 -0 -0 -0 -0 -0 -0 -0 -0 -0 -0 -0 -0 -0 -0 -0 -0 -0 -0 -0 -0 -0 -0 -0 -0 -0 -1 -0
-167 -177 -246 -314 -327 -300 -309 -290 -262 -263 -0 -0 -0 -0 -0 -0 -0 -0 -0 -0 -0 -0 -0 -0 -0 -0 -0 -0 -0 -0 -0 -0 -0 -0 -0 -0 -0 -0 -0 -0 -0 -0 -0
-197 -192 -229 -265 -338 -0 -363 -311 -296 -294 -0 -0 -0 -0 -0 -0 -0 -0 -0 -0 -0 -0 -0 -0 -0 -0 -0 -0 -0 -0 -0 -0 -0 -0 -0 -0 -0 -0 -0 -0 -0 -0 -0
-289 -242 -224 -256 -275 -21 -0 -309 -265 -238 -326 -0 -0 -0 -0 -0 -0 -0 -0 -0 -0 -0 -0 -0 -0 -0 -0 -0 -0 -0 -0 -0 -0 -0 -0 -0 -0 -0 -0 -0 -0 -0 -0
-0 -118 -354 -299 -309 -349 -0 -289 -259 -279 -342 -348 -288 -0 -0 -0 -0 -0 -0 -0 -0 -0 -0 -0 -0 -0 -0 -0 -0 -0 -0 -0 -0 -0 -0 -0 -0 -0 -0 -0 -0 -0 -0
-0 -0 -118 -365 -358 -374 -348 -293 -257 -242 -222 -0 -0 -0 -0 -0 -0 -0 -0 -0 -0 -0 -0 -0 -0 -0 -0 -0 -0 -0 -0 -0 -0 -0 -0 -0 -0 -0 -0 -0 -0 -1 -1
-0 -0 -452 -472 -430 -393 -316 -299 -300 -299 -0 -0 -0 -0 -0 -0 -0 -0 -0 -0 -0 -0 -0 -0 -0 -0 -0 -0 -0 -0 -0 -0 -0 -0 -0 -0 -0 -0 -0 -0 -0 -2 -1
-221 -317 -411 -459 -431 -383 -332 -343 -342 -0 -0 -0 -0 -0 -0 -0 -0 -0 -0 -0 -0 -0 -0 -0 -0 -0 -0 -0 -0 -0 -0 -0 -0 -0 -0 -0 -0 -0 -0 -0 -1 -1 -1
-22 -263 -362 -355 -383 -372 -385 -360 -393 -0 -0 -0 -0 -0 -0 -0 -0 -0 -0 -0 -0 -0 -0 -0 -0 -0 -0 -0 -0 -0 -0 -0 -0 -0 -0 -0 -0 -0 -0 -1 -1 -2 -1
-13 -196 -204 -298 -370 -385 -357 -420 -0 -0 -0 -0 -0 -0 -0 -0 -0 -0 -0 -0 -0 -0 -0 -0 -0 -0 -0 -0 -0 -0 -0 -0 -0 -0 -0 -0 -0 -0 -0 -1 -0 -6 -0
-0 -100 -255 -329 -427 -444 -114 -0 -0 -0 -0 -0 -0 -0 -0 -0 -0 -0 -0 -0 -0 -0 -0 -0 -0 -0 -0 -0 -0 -0 -0 -0 -0 -0 -0 -0 -0 -0 -0 -2 -1 -1 -1
-0 -0 -0 -462 -491 -0 -0 -0 -0 -0 -0 -0 -0 -0 -0 -0 -0 -0 -0 -0 -0 -0 -0 -0 -0 -0 -0 -0 -0 -0 -0 -0 -0 -0 -0 -0 -0 -0 -0 -0 -0 -0 -1
-0 -0 -0 -0 -0 -0 -0 -0 -0 -0 -0 -0 -0 -0 -0 -0 -0 -0 -0 -0 -0 -0 -0 -0 -0 -0 -0 -0 -0 -0 -0 -0 -0 -0 -0 -0 -0 -0 -0 -0 -0 -0 -0
-0 -0 -0 -0 -0 -0 -0 -0 -0 -0 -0 -0 -0 -0 -0 -0 -0 -0 -0 -0 -0 -0 -0 -0 -0 -0 -0 -0 -0 -0 -0 -0 -0 -0 -0 -0 -0 -0 -0 -0 -0 -0 -0
-0 -0 -0 -0 -0 -0 -0 -0 -0 -0 -0 -0 -0 -0 -0 -0 -0 -0 -0 -0 -0 -0 -0 -0 -0 -0 -0 -0 -0 -0 -0 -0 -0 -0 -0 -0 -0 -0 -0 -0 -0 -0 -0
-0 -0 -0 -0 -0 -0 -0 -0 -0 -0 -0 -0 -0 -0 -0 -0 -0 -0 -0 -0 -0 -0 -0 -0 -0 -0 -0 -0 -0 -0 -0 -0 -0 -0 -0 -0 -0 -0 -0 -0 -0 -0 -0
-0 -0 -0 -0 -0 -0 -0 -0 -0 -0 -0 -0 -0 -0 -0 -0 -0 -0 -0 -0 -0 -0 -0 -0 -0 -0 -0 -0 -0 -0 -0 -0 -0 -0 -0 -0 -0 -0 -0 -0 -0 -0 -0
-0 -0 -0 -0 -0 -0 -0 -0 -0 -0 -0 -0 -0 -0 -0 -0 -0 -0 -0 -0 -0 -0 -0 -0 -0 -0 -0 -0 -0 -0 -0 -0 -0 -0 -0 -0 -0 -0 -0 -0 -0 -0 -0
-0 -0 -0 -0 -0 -0 -0 -0 -0 -0 -0 -0 -0 -0 -0 -0 -0 -0 -0 -0 -0 -0 -0 -0 -0 -0 -1 -0 -0 -3 -0 -0 -1 -0 -0 -0 -0 -0 -0 -0 -0 -0 -0
-0 -0 -0 -0 -0 -0 -0 -0 -0 -0 -0 -0 -0 -0 -0 -0 -0 -0 -0 -0 -0 -0 -0 -0 -0 -0 -0 -0 -1 -0 -0 -0 -2 -0 -0 -0 -0 -0 -0 -0 -0 -0 -0
-0 -0 -0 -0 -0 -0 -0 -0 -0 -0 -0 -0 -0 -0 -0 -0 -0 -0 -0 -0 -0 -0 -0 -0 -0 -0 -0 -0 -0 -0 -0 -0 -0 -0 -0 -0 -0 -0 -0 -0 -0 -0 -0
-0 -0 -0 -0 -0 -0 -0 -0 -0 -0 -0 -0 -0 -0 -0 -0 -0 -0 -0 -0 -0 -0 -0 -0 -0 -0 -0 -0 -0 -0 -0 -0 -0 -0 -0 -0 -0 -0 -0 -0 -0 -0 -0
Wind_Speed
29 31 33 33 33 30 28 24 18 3 5 2 1 6 6 6 8 8 5 6 7 7 7 8 9 10 13 14 16 18 21 22 23 24 25 22 20 21 22 25 26 29 26
28 28 30 30 31 31 29 18 12 6 4 1 4 11 9 13 9 5 5 5 5 6 6 7 8 9 13 14 16 18 21 22 23 27 28 31 26 21 23 25 26 27 26
28 30 30 30 28 26 23 17 11 9 8 1 3 9 10 11 10 5 4 4 5 5 5 7 8 10 13 14 16 17 19 24 23 23 27 31 32 33 26 26 25 26 27
25 28 27 27 25 23 14 12 9 7 4 3 2 4 5 5 10 3 3 4 4 5 6 7 8 11 13 14 17 18 20 22 25 25 24 26 28 32 35 29 28 27 29
19 19 21 22 18 16 13 9 6 6 5 4 4 4 6 10 7 2 2 4 4 4 5 5 8 10 13 16 17 18 21 23 26 27 28 27 28 28 32 37 33 30 31
19 18 12 12 11 8 6 6 5 5 5 5 5 6 6 6 7 1 1 3 4 4 4 6 8 11 14 17 16 18 21 25 26 26 27 28 30 31 31 34 36 37 35
16 15 14 13 9 8 7 6 6 6 6 7 7 7 6 5 4 2 2 2 4 6 7 7 9 11 15 15 15 20 23 26 26 25 27 26 26 27 30 34 37 37 36
18 17 17 13 11 11 9 6 8 8 5 6 6 6 6 6 5 4 3 4 5 7 6 7 10 12 16 14 18 22 24 25 25 25 25 25 26 27 30 33 36 39 38
9 14 12 11 10 11 8 8 6 6 5 5 6 7 6 6 6 5 5 6 7 6 7 11 13 18 13 17 20 23 25 25 25 25 24 25 26 28 29 29 30 34 42
7 3 6 9 8 8 8 7 6 6 7 6 7 7 6 6 5 6 6 6 6 8 10 13 17 15 18 20 23 24 25 25 25 24 24 25 27 29 29 28 29 29 32
14 6 3 5 7 7 7 7 6 7 8 8 7 5 5 5 5 8 5 5 7 9 11 17 20 18 22 23 24 24 25 26 25 25 25 26 27 29 29 27 28 29 29
17 11 6 7 7 7 8 8 8 9 9 7 5 5 4 4 5 5 4 5 7 14 13 16 19 22 23 25 25 26 26 26 26 26 26 27 27 30 29 29 30 29 28
18 14 10 6 7 9 9 10 9 8 7 6 5 6 7 5 4 6 5 9 13 17 17 19 22 24 26 26 26 27 27 27 26 25 26 28 30 31 31 30 31 30 28
15 11 9 9 11 10 9 9 11 9 8 9 10 9 7 6 8 10 11 16 16 18 19 21 24 26 27 27 27 28 28 27 25 25 26 28 30 32 32 32 31 30 28
16 11 10 9 11 10 9 9 10 10 9 9 9 8 7 7 9 13 16 18 17 19 23 24 26 27 27 27 28 29 28 28 28 28 28 28 29 31 31 31 31 28 27
22 16 11 8 8 9 9 10 9 9 8 9 7 7 9 10 8 14 19 17 20 23 26 27 27 27 28 28 30 30 30 30 31 32 31 31 31 32 32 31 28 26 26
20 15 12 9 8 8 6 7 7 7 7 6 7 8 8 10 13 17 16 22 24 29 27 26 27 28 29 30 31 32 32 33 33 33 33 33 32 33 32 29 27 26 23
13 12 11 9 8 7 8 7 7 8 7 8 8 8 10 13 15 17 24 25 27 27 27 28 28 29 30 31 32 33 34 34 34 34 33 34 35 33 31 29 27 25 24
13 12 11 10 9 8 7 7 8 8 8 8 8 10 12 15 19 24 25 27 27 28 28 28 29 31 32 32 33 35 37 37 37 35 34 34 35 32 29 28 27 26 24
13 12 12 11 10 9 8 8 8 8 9 9 11 13 15 19 22 25 26 26 27 28 29 30 30 32 34 34 35 37 38 40 39 37 36 34 33 31 27 26 24 25 23
12 12 12 12 11 10 10 10 10 10 10 12 14 17 20 22 24 25 26 28 30 31 33 35 35 36 37 39 39 40 41 41 41 40 38 34 32 29 24 21 20 20 20
11 11 12 12 12 11 11 11 11 12 13 15 17 21 23 24 25 27 29 31 33 35 37 39 41 40 41 41 42 42 41 41 40 39 36 32 29 26 22 18 17 16 16
10 11 11 12 13 12 12 13 14 14 15 18 20 21 23 25 27 29 32 34 35 37 39 42 44 45 44 44 44 43 42 42 39 36 33 30 27 24 21 19 18 16 17
8 9 10 11 12 13 15 15 16 17 18 19 21 23 25 27 28 30 32 34 36 38 40 42 45 46 47 47 46 46 45 43 38 35 31 27 22 20 20 21 20 20 19
7 8 9 11 13 14 16 18 19 18 19 21 23 25 27 29 30 31 32 33 34 37 40 41 43 47 49 49 49 48 45 42 39 35 29 24 19 17 16 17 17 19 20
7 9 10 11 13 16 17 19 20 20 21 22 25 27 28 30 31 32 32 31 33 35 37 39 41 42 44 48 49 48 45 41 39 31 25 21 16 13 14 15 16 18 19
Wind_Direction
153 157 164 169 169 167 163 157 139 100 111 114 288 291 298 310 307 313 34 66 68 56 37 30 27 20 11 8 7 3 360 356 353 352 349 348 346 343 344 343 340 340 341
161 158 164 168 173 178 179 154 145 138 143 255 286 284 294 285 304 359 44 57 55 37 36 37 23 18 7 4 1 357 355 355 352 349 347 342 342 339 336 336 336 337 338
169 172 174 175 175 174 168 158 147 145 145 168 297 299 294 292 303 339 17 50 42 40 38 24 18 9 3 359 356 353 351 349 350 349 346 342 338 336 340 338 335 334 334
176 182 179 180 179 177 166 163 157 155 168 183 241 268 280 293 301 345 56 38 28 25 20 17 12 2 357 353 351 350 350 351 346 346 343 340 338 336 334 338 337 334 331
175 174 177 179 175 172 172 174 179 179 185 212 231 268 285 297 321 352 22 3 3 10 13 9 360 355 350 349 345 348 350 349 343 341 341 339 337 335 331 329 332 333 332
185 183 181 177 176 178 181 186 204 216 214 242 253 265 274 291 316 267 323 333 346 354 352 351 349 352 353 347 347 347 345 343 341 340 339 337 336 335 334 331 331 330 331
195 193 193 192 194 199 201 212 209 248 256 246 251 257 270 271 276 239 274 278 314 324 329 338 349 350 351 347 345 338 339 339 338 338 338 339 338 338 336 332 330 329 331
192 197 197 201 205 193 196 213 203 261 245 241 237 245 262 269 261 257 257 260 298 321 335 337 340 341 344 340 340 337 337 338 337 337 338 339 339 338 336 332 331 329 329
168 188 199 210 214 207 207 210 218 229 244 258 263 261 256 250 240 258 277 304 320 336 345 342 336 332 337 340 338 336 335 335 336 336 336 336 337 337 336 335 332 329 327
327 157 191 210 228 238 220 222 224 258 280 279 271 266 247 241 260 286 303 319 331 345 337 343 342 335 333 335 335 333 334 334 334 334 333 333 334 335 336 335 332 331 328
318 345 317 271 263 261 242 250 266 287 295 293 289 275 266 265 285 296 313 333 339 333 331 321 331 327 330 331 331 331 332 331 330 330 330 330 332 333 334 333 331 329 328
321 332 332 306 285 271 269 267 284 300 310 320 318 312 305 297 304 301 328 341 335 330 330 329 332 331 331 330 329 328 329 328 327 327 327 328 331 330 330 329 327 326 325
322 323 320 314 298 287 283 282 287 298 314 320 323 319 320 315 336 314 306 330 332 331 331 334 332 331 330 329 328 327 327 326 325 325 326 326 328 328 328 327 326 325 325
330 318 308 304 300 297 295 289 302 311 314 315 322 320 322 332 334 332 314 330 337 339 336 335 333 332 331 331 330 329 328 327 326 325 325 325 325 326 326 324 324 323 322
323 324 311 300 299 300 302 300 308 316 325 328 329 329 341 341 336 324 333 341 341 337 333 333 331 332 333 333 333 331 330 328 326 325 323 323 323 323 323 323 322 322 321
314 316 315 306 300 302 306 311 318 327 336 336 349 350 345 337 350 335 335 336 333 334 332 329 330 332 333 333 332 331 329 327 324 322 322 322 322 322 321 318 315 316 319
317 319 320 317 314 315 319 324 333 349 353 1 359 354 355 348 341 338 337 334 330 329 330 331 331 331 331 332 331 330 328 325 323 322 321 321 322 322 321 321 318 317 314
349 346 345 343 339 340 339 345 351 354 4 2 1 5 357 348 346 341 333 330 331 331 331 331 331 331 331 331 331 330 328 325 322 321 319 319 319 320 320 319 318 318 318
6 4 2 360 0 0 6 11 14 17 18 18 13 3 354 346 338 333 332 332 332 332 332 332 331 330 330 330 329 329 327 325 322 321 319 317 317 318 317 316 315 316 317
6 9 11 13 13 17 32 32 27 26 22 16 1 354 347 339 335 335 333 334 334 333 332 330 330 328 327 327 326 325 324 322 321 320 319 318 314 314 313 312 313 314 316
7 13 18 21 30 40 45 37 33 22 14 1 354 347 343 340 339 339 338 337 334 333 331 329 328 327 326 325 324 323 321 318 318 317 317 318 317 315 309 306 309 311 318
16 21 26 28 32 39 40 28 15 7 1 354 350 345 343 343 341 339 338 336 334 332 331 330 329 330 330 329 328 327 324 321 318 315 314 314 315 315 312 306 303 303 314
25 29 31 30 23 22 19 10 2 0 356 350 346 347 345 343 342 340 337 336 335 334 333 333 332 332 334 333 332 329 328 327 323 319 314 310 310 310 313 309 309 305 311
21 33 32 19 13 12 7 3 358 354 351 350 348 344 343 342 342 341 340 339 338 337 336 335 334 333 334 335 335 334 332 329 325 325 320 314 307 306 309 315 317 315 315
22 24 14 9 3 3 358 355 354 354 350 347 345 343 342 341 340 342 342 342 343 341 339 338 337 336 336 337 336 335 333 331 328 325 322 319 316 311 311 316 320 321 320
7 3 2 0 356 355 354 354 352 351 348 345 343 342 342 341 341 341 342 346 345 345 346 346 346 344 343 342 342 341 339 340 341 336 329 326 320 318 319 320 323 323 320